Regional Weather Roundup
Issued by NWS

Home | Current Version | Previous Version | Graphics & Text | Print | Product List | Glossary On
Versions: 1 2 3 4 5 6 7 8 9 10 11 12 13 14 15 16 17 18 19 20 21 22 23 24 25 26 27 28 29 30 31 32 33 34 35 36 37 38 39 40 41 42 43 44 45 46 47 48 49 50
000
ASUS45 KBOU 241507
RWRCO

WEATHER ROUNDUP FOR COLORADO
NATIONAL WEATHER SERVICE DENVER/BOULDER CO
900 AM MDT THU JUL 24 2014

NOTE: "FAIR" INDICATES FEW OR NO CLOUDS BELOW 12000 FEET WITH NO
SIGNIFICANT WEATHER AND/OR OBSTRUCTIONS TO VISIBILITY.

COZ001>005-013-030-031-241600-
...NORTHWEST COLORADO...

CITY           SKY/WX    TMP DP  RH WIND       PRES   REMARKS
CRAIG          PTSUNNY   67  51  56 CALM      30.29R
HAYDEN         MOSUNNY   75  45  33 NE9       30.31S
MEEKER         MOSUNNY   74  46  36 E3        30.31S
MOUNT WERNER   NOT AVBL
STEAMBOAT SPGS MOSUNNY   69  46  43 CALM      30.34S
WALDEN         MOSUNNY   70  41  35 S10G17    30.41S
$$

COZ006>008-011-241600-
...WEST CENTRAL VALLEYS...

CITY           SKY/WX    TMP DP  RH WIND       PRES   REMARKS
GRAND JUNCTION LGT RAIN  79  51  37 SE13      30.21R
MONTROSE       PTSUNNY   76  59  55 MISG      30.32R
EAGLE          MOSUNNY   66  50  55 VRB5      30.38F
RIFLE          MOSUNNY   72  50  45 CALM      30.27S
DELTA          PTSUNNY   74  57  54 E12       30.28R
NUCLA          NOT AVBL
$$

COZ017>023-064>068-241600-
...SOUTHWEST COLORADO...

CITY           SKY/WX    TMP DP  RH WIND       PRES   REMARKS
DURANGO        SUNNY     68  52  56 CALM      30.41S
CORTEZ         SUNNY     80  50  34 S7G16     30.32S
PAGOSA SPRINGS SUNNY     66  51  58 CALM      30.49S
TELLURIDE      NOT AVBL
WOLF CREEK PAS NOT AVBL
$$

COZ009-010-012-014-032>034-037-058>063-241600-
...CENTRAL COLORADO...

CITY           SKY/WX    TMP DP  RH WIND       PRES   REMARKS
ASPEN          LGT RAIN  61  52  72 NW12      30.47R
BUENA VISTA    PTSUNNY   69  45  41 E5        30.45F
COPPER MTN     CLOUDY    59  39  47 SW12G18   30.77S
BERTHOUD PASS  FAIR      50  36  57 W21G26    30.79S
COTTONWOOD PAS PTSUNNY   68  41  37 N3        30.59F
GUNNISON       MOSUNNY   66  45  45 CALM      30.50S
KREMMLING      MOSUNNY   59  43  55 CALM      30.42S
LEADVILLE      PTSUNNY   60  45  57 N6        30.59S
MONARCH PASS   MOSUNNY   50  39  66 SW22      30.86S
SALIDA         PTSUNNY  N/A N/A N/A SW16G26   30.47F
SUNLIGHT       CLOUDY    57  46  67 CALM      30.69S
WILKERSON PASS SUNNY     52  41  66 W10G18    30.70S
$$

COZ069>075-241600-
...SAN LUIS VALLEY/SANGRE DE CRISTO MOUNTAINS...

CITY           SKY/WX    TMP DP  RH WIND       PRES   REMARKS
ALAMOSA        MOSUNNY   67  51  56 E5        30.46S
LA VETA PASS   SUNNY     59  43  55 SW16G33   30.59F
SAGUACHE       MOSUNNY   64  46  52 W3        30.49F
$$

COZ035-036-038>040-241600-
...NORTHERN COLORADO FRONT RANGE...

CITY           SKY/WX    TMP DP  RH WIND       PRES   REMARKS
DENVER INTL AP MOSUNNY   84  48  28 SW12      30.14S
DMNS CITY PARK   N/A     82  53  36 S6        30.13S
AURORA         MOSUNNY   80  53  38 SW10      30.17S
FRONT RANGE AP MOSUNNY   86  48  26 SW12      30.16R
ERIE MUNI ARPT SUNNY     82  53  36 CALM      30.10F
BOULDER MUN AP SUNNY     79  50  36 CALM      30.12R
CENTENNIAL     MOSUNNY   83  45  26 SW10      30.18S
BROOMFIELD     MOSUNNY   81  50  34 CALM      30.16S
FORT COLLINS   SUNNY     77  55  47 S5        30.11F
LONGMONT       SUNNY     82  53  36 CALM      30.11S
$$

COZ041-046-047-076>085-087-088-241600-
...PIKES PEAK/PALMER DIVIDE AND SOUTHERN FOOTHILLS...

CITY           SKY/WX    TMP DP  RH WIND       PRES   REMARKS
COLO. SPRINGS  MOSUNNY   75  57  53 SE5       30.24F
A. F. ACADEMY  SUNNY     77  56  48 S5        30.26F
ELLICOTT       SUNNY     77  50  38 SW9       30.23S
FALCON         SUNNY     76  54  46 S3        30.30S
FORT CARSON    SUNNY     74  58  57 NE2       30.22S
LIMON          SUNNY     83  51  33 S13G20    30.16F
MONUMENT HILL  SUNNY     79  43  27 W13       30.29R
TRINIDAD       SUNNY     82  48  30 SW16      30.24F
$$

COZ042>045-048>051-090-091-241600-
...NORTHEAST COLORADO...

CITY           SKY/WX    TMP DP  RH WIND       PRES   REMARKS
GREELEY ARPT   SUNNY     72  54  53 W3        30.10S
AKRON          SUNNY     88  47  24 S20G29    30.07F
BURLINGTON     SUNNY     83  56  39 SW14      30.11S
WRAY             N/A     87  55  33 SW13G22   30.03F
STERLING       SUNNY     81  64  57 S10       30.02F
HOLYOKE        SUNNY     84  63  48 SW7       30.02S
FORT MORGAN    SUNNY     82  54  38 S6        30.08S
$$

COZ086-089-092>099-241600-
...SOUTHEAST COLORADO...

CITY           SKY/WX    TMP DP  RH WIND       PRES   REMARKS
PUEBLO         SUNNY     79  53  40 W3        30.14F
LA JUNTA       SUNNY     84  54  35 SW13      30.12F
LAMAR          SUNNY     86  53  32 SW14      30.08F
SPRINGFIELD      N/A     84  54  35 SW18G25   30.16F
$$


USA.gov is the U.S. government's official web portal to all federal, state and local government web resources and services.